Weather History for KBVO - October, 2012

Change the Weather History Date:

Monday, October 15, 2012

  Actual Average Record
Temperature  
Mean Temperature 68 °F -  
Max Temperature 88 °F 76 °F 91 °F (1963)
Min Temperature 48 °F 49 °F 30 °F (2002)
Cooling Degree Days 2    
Growing Degree Days 18 (Base 50)    
Moisture  
Dew Point 46 °F    
Average Humidity 48    
Maximum Humidity 100    
Minimum Humidity 22    
Precipitation  
Precipitation 0.00 in - - ()
Sea Level Pressure  
Sea Level Pressure 29.95 in    
Wind  
Wind Speed 6 mph (SW)    
Max Wind Speed 12 mph    
Max Gust Speed 17 mph    
Visibility 10 miles    
Events      
Averages and records for this station are not official NWS values.
T = Trace of Precipitation, MM = Missing Value Source: NWS Daily Summary

Daily Weather History Graph

Daily Weather History Graph

Search for Another Location

Airport or City:

Trip Planner

Search our weather history database for the weather conditions in past years. The results will help you decide how hot, cold, wet, or windy it might be!

Date:

Astronomy

Oct. 15, 2012 Rise Set
Actual Time 7:31 AM CDT 6:46 PM CDT
Civil Twilight 7:05 AM CDT 7:12 PM CDT
Nautical Twilight 6:35 AM CDT 7:42 PM CDT
Astronomical Twilight 6:05 AM CDT 8:12 PM CDT
Moon 7:42 AM CDT (10/15) 6:49 PM CDT (10/15)
Length of Visible Light 12h 07m
Length of Day
11h 14m
New Moon, 0% of the Moon is Illuminated
Oct 15
New Moon
Oct 21
First Quarter
Oct 29
Full
Nov 6
Last Quarter
Nov 13
New

Hourly Weather History & Observations

Time (CDT) Temp. Dew Point Humidity Pressure Visibility Wind Dir Wind Speed Gust Speed Precip Events Conditions
12:53 AM 48.0 °F 48.0 °F 100% 30.05 in 10.0 mi Calm Calm - N/A   Clear
1:53 AM 48.9 °F 48.0 °F 97% 30.03 in 10.0 mi Calm Calm - N/A   Clear
2:53 AM 55.9 °F 46.9 °F 72% 30.02 in 10.0 mi WSW 4.6 mph - N/A   Clear
3:53 AM 57.0 °F 46.0 °F 67% 30.01 in 10.0 mi WSW 8.1 mph - N/A   Clear
4:53 AM 57.0 °F 45.0 °F 64% 30.01 in 10.0 mi WSW 10.4 mph 16.1 mph N/A   Clear
5:53 AM 57.0 °F 44.1 °F 62% 30.01 in 10.0 mi WSW 8.1 mph - N/A   Clear
7:53 AM 57.9 °F 45.0 °F 62% 30.03 in 10.0 mi WSW 8.1 mph - N/A   Clear
8:53 AM 62.1 °F 45.0 °F 53% 30.04 in 10.0 mi West 11.5 mph - N/A   Clear
9:53 AM 66.9 °F 46.0 °F 47% 30.04 in 10.0 mi West 10.4 mph - N/A   Clear
10:53 AM 73.9 °F 45.0 °F 35% 30.03 in 10.0 mi West 10.4 mph 17.3 mph N/A   Clear
11:53 AM 81.0 °F 44.1 °F 27% 30.01 in 10.0 mi SW 10.4 mph 17.3 mph N/A   Clear
12:53 PM 82.9 °F 43.0 °F 24% 29.98 in 10.0 mi WSW 9.2 mph - N/A   Clear
1:53 PM 86.0 °F 44.1 °F 23% 29.94 in 10.0 mi SW 11.5 mph 17.3 mph N/A   Clear
2:53 PM 87.1 °F 44.1 °F 22% 29.90 in 10.0 mi SW 10.4 mph 17.3 mph N/A   Clear
3:53 PM 87.1 °F 44.1 °F 22% 29.88 in 10.0 mi WSW 8.1 mph - N/A   Clear
4:53 PM 86.0 °F 43.0 °F 22% 29.86 in 10.0 mi SW 11.5 mph - N/A   Clear
5:53 PM 82.9 °F 44.1 °F 25% 29.85 in 10.0 mi South 4.6 mph - N/A   Clear
6:53 PM 75.9 °F 48.0 °F 37% 29.84 in 10.0 mi South 5.8 mph - N/A   Clear
7:53 PM 73.0 °F 48.9 °F 42% 29.86 in 10.0 mi SSW 5.8 mph - N/A   Clear
8:53 PM 72.0 °F 48.9 °F 44% 29.86 in 10.0 mi SW 8.1 mph - N/A   Clear
9:53 PM 71.1 °F 50.0 °F 47% 29.87 in 10.0 mi SSW 10.4 mph - N/A   Clear
10:53 PM 68.0 °F 51.1 °F 55% 29.86 in 10.0 mi SSW 8.1 mph - N/A   Clear
11:53 PM 68.0 °F 51.1 °F 55% 29.86 in 10.0 mi South 8.1 mph - N/A   Clear